| time (UTC) | temp F | wind direction | speed MPH | gust MPH | rain 1hr in | rain 24hr in | rain mn in | humidity % | barometer mb |
| 20260504234555 | 72 | 83 | 1.0 | 4.0 | 0.00 | 0.03 | 0.03 | 57 | 1007.2 |
| 20260504233047 | 72 | 103 | 0.0 | 3.0 | 0.00 | 0.03 | 0.03 | 57 | 1007.4 |
| 20260504231545 | 73 | 78 | 1.0 | 3.0 | 0.00 | 0.03 | 0.03 | 54 | 1007.7 |
| 20260504230046 | 74 | 72 | 2.0 | 4.0 | 0.00 | 0.03 | 0.03 | 51 | 1008.1 |
| 20260504224544 | 75 | 95 | 2.0 | 5.0 | 0.00 | 0.03 | 0.03 | 51 | 1008.4 |
| 20260504223043 | 75 | 92 | 4.0 | 7.0 | 0.00 | 0.03 | 0.03 | 50 | 1008.5 |
| 20260504221548 | 76 | 101 | 4.0 | 6.0 | 0.00 | 0.03 | 0.03 | 49 | 1008.4 |
| 20260504220056 | 76 | 68 | 2.0 | 5.0 | 0.00 | 0.03 | 0.03 | 56 | 1008.6 |
| 20260504214551 | 75 | 44 | 2.0 | 3.0 | 0.00 | 0.03 | 0.03 | 56 | 1008.7 |
| 20260504213107 | 75 | 42 | 1.0 | 4.0 | 0.00 | 0.03 | 0.03 | 56 | 1008.7 |
| 20260504211549 | 75 | 78 | 2.0 | 5.0 | 0.00 | 0.03 | 0.03 | 54 | 1009.0 |
| 20260504210050 | 75 | 82 | 3.0 | 6.0 | 0.00 | 0.03 | 0.03 | 53 | 1009.2 |
| 20260504204550 | 76 | 90 | 2.0 | 5.0 | 0.00 | 0.03 | 0.03 | 52 | 1009.2 |
| 20260504203048 | 76 | 80 | 3.0 | 5.0 | 0.00 | 0.03 | 0.03 | 51 | 1009.0 |
| 20260504201544 | 77 | 92 | 3.0 | 7.0 | 0.00 | 0.03 | 0.03 | 50 | 1008.8 |
| 20260504200041 | 76 | 83 | 2.0 | 4.0 | 0.00 | 0.03 | 0.03 | 53 | 1009.2 |
| 20260504194547 | 77 | 77 | 3.0 | 6.0 | 0.00 | 0.03 | 0.03 | 50 | 1009.3 |
| 20260504193059 | 77 | 91 | 2.0 | 4.0 | 0.00 | 0.03 | 0.03 | 52 | 1009.5 |
| 20260504191545 | 77 | 98 | 1.0 | 4.0 | 0.00 | 0.03 | 0.03 | 55 | 1009.8 |
| 20260504190051 | 77 | 85 | 1.0 | 6.0 | 0.00 | 0.03 | 0.03 | 54 | 1009.9 |
| 20260504184544 | 77 | 106 | 2.0 | 5.0 | 0.00 | 0.03 | 0.03 | 57 | 1010.2 |
| 20260504183055 | 76 | 80 | 3.0 | 5.0 | 0.00 | 0.03 | 0.03 | 54 | 1010.2 |
| 20260504181545 | 75 | 88 | 2.0 | 4.0 | 0.00 | 0.03 | 0.03 | 56 | 1010.2 |
| 20260504180117 | 74 | 86 | 2.0 | 4.0 | 0.00 | 0.03 | 0.03 | 56 | 1010.1 |
| 20260504174552 | 76 | 78 | 2.0 | 5.0 | 0.00 | 0.03 | 0.03 | 56 | 1010.1 |
| 20260504173052 | 75 | 83 | 2.0 | 5.0 | 0.00 | 0.03 | 0.03 | 55 | 1010.1 |
| 20260504171552 | 74 | 81 | 2.0 | 5.0 | 0.00 | 0.03 | 0.03 | 57 | 1010.3 |
| 20260504081549 | 53 | 194 | 0.0 | 1.0 | 0.00 | 0.00 | 0.00 | 73 | 1011.8 |
| 20260504044550 | 54 | 76 | 0.0 | 1.0 | 0.00 | 0.00 | 0.00 | 68 | 1014.0 |
| 20260504043054 | 54 | 0 | 0.0 | 1.0 | 0.00 | 0.00 | 0.00 | 68 | 1014.0 |
| 20260504041551 | 54 | 0 | 0.0 | 1.0 | 0.00 | 0.00 | 0.00 | 67 | 1013.9 |
| 20260504034555 | 54 | 35 | 0.0 | 2.0 | 0.00 | 0.00 | 0.00 | 67 | 1014.3 |
| 20260504033043 | 53 | 45 | 0.0 | 1.0 | 0.00 | 0.00 | 0.00 | 67 | 1014.3 |
| 20260504031546 | 53 | 0 | 0.0 | 2.0 | 0.00 | 0.00 | 0.00 | 69 | 1014.4 |
| 20260504030047 | 53 | 0 | 0.0 | 1.0 | 0.00 | 0.00 | 0.00 | 69 | 1014.8 |
| 20260504024544 | 53 | 0 | 0.0 | 1.0 | 0.00 | 0.00 | 0.00 | 69 | 1014.8 |
| 20260504023048 | 53 | 0 | 0.0 | 1.0 | 0.00 | 0.00 | 0.00 | 69 | 1014.9 |
| 20260504021547 | 53 | 0 | 0.0 | 0.0 | 0.00 | 0.00 | 0.00 | 68 | 1015.0 |
| 20260504020054 | 53 | 0 | 0.0 | 0.0 | 0.00 | 0.00 | 0.00 | 70 | 1014.9 |
| 20260504014550 | 54 | 0 | 0.0 | 0.0 | 0.00 | 0.00 | 0.00 | 66 | 1015.0 |
| 20260504013042 | 55 | 0 | 0.0 | 0.0 | 0.00 | 0.00 | 0.00 | 62 | 1015.1 |
| 20260504011548 | 56 | 0 | 0.0 | 0.0 | 0.00 | 0.00 | 0.00 | 63 | 1015.2 |
| 20260504010046 | 57 | 0 | 0.0 | 0.0 | 0.00 | 0.00 | 0.00 | 58 | 1014.8 |
| 20260504004546 | 57 | 0 | 0.0 | 0.0 | 0.00 | 0.00 | 0.00 | 58 | 1014.7 |
| 20260504003047 | 58 | 0 | 0.0 | 1.0 | 0.00 | 0.00 | 0.00 | 57 | 1014.5 |
| 20260504001543 | 58 | 0 | 0.0 | 0.0 | 0.00 | 0.00 | 0.00 | 56 | 1014.3 |
| 20260504000046 | 59 | 0 | 0.0 | 2.0 | 0.00 | 0.00 | 0.00 | 56 | 1014.4 |